This is the latest recevied weather packets stored in our database for station/object NK7E-2. If no packets are shown the sender has not sent any weather packets the latest 10 day(s).
| Time | Temp. | Humidity | Pressure | Rain* | Wind** | Luminosity | Snow |
|---|---|---|---|---|---|---|---|
| 1788409816 | 27.22° C | 54% | 1027.5 hPa | 0 mm | - | - | - |
| 1788409216 | 27.22° C | 54% | 1027.5 hPa | 0 mm | - | - | - |
| 1788408616 | 27.22° C | 52% | 1027.3 hPa | 0 mm | - | - | - |
| 1788408016 | 27.78° C | 51% | 1027.5 hPa | 0 mm | - | - | - |
| 1788407416 | 27.78° C | 50% | 1027.1 hPa | 0 mm | - | - | - |
| 1788406816 | 27.78° C | 50% | 1027.2 hPa | 0 mm | - | - | - |
| 1788406216 | 28.33° C | 49% | 1027.3 hPa | 0 mm | - | - | - |
| 1788405616 | 27.78° C | 50% | 1026.7 hPa | 0 mm | - | - | - |
| 1788405016 | 28.33° C | 49% | 1026.9 hPa | 0 mm | - | - | - |
| 1788404416 | 28.89° C | 48% | 1026.8 hPa | 0 mm | - | - | - |
| 1788403816 | 28.89° C | 49% | 1026.7 hPa | 0 mm | - | - | - |
| 1788403216 | 28.89° C | 47% | 1026.3 hPa | 0 mm | - | - | - |
| 1788402616 | 28.89° C | 47% | 1026.4 hPa | 0 mm | - | - | - |
| 1788402016 | 29.44° C | 46% | 1026.5 hPa | 0 mm | - | - | - |
| 1788401416 | 30° C | 45% | 1026.3 hPa | 0 mm | - | - | - |
| 1788400816 | 30° C | 44% | 1026.2 hPa | 0 mm | - | - | - |
| 1788400216 | 30° C | 43% | 1026 hPa | 0 mm | - | - | - |
| 1788399616 | 30° C | 43% | 1026.1 hPa | 0 mm | - | - | - |
| 1788399016 | 30.56° C | 43% | 1025.7 hPa | 0 mm | - | - | - |
| 1788398416 | 30.56° C | 43% | 1025.9 hPa | 0 mm | - | - | - |
| 1788397816 | 30.56° C | 42% | 1026.1 hPa | 0 mm | - | - | - |
| 1788397216 | 30.56° C | 42% | 1026.4 hPa | 0 mm | - | - | - |
| 1788396616 | 31.11° C | 42% | 1026.4 hPa | 0 mm | - | - | - |
| 1788396016 | 31.67° C | 40% | 1026.5 hPa | 0 mm | - | - | - |
| 1788395416 | 31.11° C | 40% | 1026.5 hPa | 0 mm | - | - | - |
* Rain latest hour (hover to see other rain measurements)
** Current wind speed in m/s (hover to see current wind gust speed)